SCATSAT 1

Last updated on Mon Sep 07 2026 00:02:46 GMT+0000 (Coordinated Universal Time)

1 41790U 16059H 26249.63521206 .00000526 00000+0 75871-4 0 9994 2 41790 98.1119 314.2160 0054009 346.8934 13.0870 14.79690872113630
UTC large
Height (km)
Speed (km/s)
/
Latitude / Longitude
Inclination (degrees)
Orbital Period (minutes)
Azimuth
Elevation
Range (km)
Doppler Factor

Next 0 passes for location: London (51.5072 / 0.1276)

No passes found over London.
SCATSAT 1